www.pogodaiklimat.ru

Погода и климат >> Архив погоды >> Россия >> Приморский край >> Анучино


ПОГОДА в Анучино

  • Прогноз погоды в Анучино
  • Монитор погоды в Анучино

АРХИВ ПОГОДЫ в Анучино

Время (UTC), дата Ветер
(напр.,м/с)
 
Видим.   Явления Облачность Т
(С)
Тd
(С)
f
(%)
Тe
(С)
Тes
(С)
Комфортность P
(гПа)
Po
(гПа)
Тmin
(С)
Tmax
(С)
R
(мм)
R24
(мм)
S
(см)
15 9.07 Ю 1 50 км ясно +17.6 +15.1 85 +19 +19 1012.3 990.5
18 9.07 ЮЗ 1 50 км 4/4 300 м
[St]
+14.9 +13.9 94 +15 +15 1013.0 991.0
21 9.07 ЮЗ 1 50 км 10/10 300 м
[St]
+15.5 +14.5 94 +16 +16 1013.9 991.9 +14.6
00 10.07 З 2 50 км 10/10 600 м
[Sc]
+17.4 +14.4 83 +18 +18 1014.5 992.6
03 10.07 В 1 50 км 3/3 600 м
[Cu hum]
+23.0 +16.0 65 +27 +43 душно 1013.5 992.0
06 10.07 СВ 2 50 км ясно +26.5 +16.7 55 +30 +43 душно 1011.8 990.6
09 10.07 З 2 50 км 1/1 600 м
[Sc diur, vesp]
+25.9 +16.8 57 +30 +31 душно 1011.2 990.0 +27.4
12 10.07 ЮЗ 1 50 км 6/0
[Ci sp]
+19.2 +15.9 81 +22 +22 комфорт 1013.4 991.7
15 10.07 Ю 1 50 км 8/3 600 м
[Sc Ci sp]
+14.1 +13.0 93 +14 +14 1014.2 992.1
18 10.07 ЮЗ 1 50 км 10/10 200 м
[St]
+12.8 +12.2 96 +13 +13 1014.2 992.0
21 10.07 Ю 1 50 км 10/10 300 м
[St]
+13.3 +12.2 93 +13 +13 1013.7 991.3 +12.5
00 11.07 СВ 1 50 км 10/0
[Ac trans Cc]
+17.3 +12.8 75 +18 +25 1012.9 991.0
03 11.07 ЮВ 1 50 км 10/0
[Ac As]
+22.0 +14.4 62 +25 +32 комфорт 1010.7 989.3
06 11.07 СЗ 1 50 км 10/0
[Ac trans Cc]
+24.8 +14.3 52 +27 +35 жарко 1008.1 986.9
09 11.07 СВ 1 50 км 10/3 600 м
[Sc Ac trans]
+23.9 +15.4 59 +27 +27 жарко 1006.8 985.5 +25.3
12 11.07 Ю 1 50 км 10/3 600 м
[Sc Ac trans Cc]
+18.6 +15.9 84 +21 +21 комфорт 1007.6 985.9
15 11.07 Ю 1 50 км 10/10 600 м
[Sc]
+16.9 +14.3 85 +18 +18 1006.8 985.1
18 11.07 С 1 50 км 10/10 600 м
[Sc]
+15.8 +14.0 89 +16 +16 1005.5 983.7
21 11.07 ЮЗ 1 50 км 10/10 600 м
[Sc]
+15.4 +13.7 90 +16 +16 1005.0 983.2 +15.0
00 12.07 С 1 50 км 10/0
[Ac trans Cc]
+19.1 +15.1 78 +22 +29 комфорт 1004.1 982.6
03 12.07 СВ 1 50 км 10/10 600 м
[Cu med, cong]
+22.4 +15.4 65 +26 +26 жарко 1002.4 981.1
06 12.07 СВ 1 50 км 10/10 600 м
[Sc diur, vesp]
+21.5 +15.5 69 +25 +25 комфорт 1001.2 979.9
09 12.07 ЮВ 1 50 км 10/10 600 м
[Sc diur, vesp]
+20.8 +14.7 68 +25 +25 комфорт 1000.9 979.5 +22.7
12 12.07 СВ 1 50 км 10/10 600 м
[Sc]
+18.7 +14.6 77 +21 +21 комфорт 1002.3 980.8
15 12.07 штиль 0 50 км 10/10 600 м
[Sc]
+17.0 +15.0 88 +17 +17 1002.4 980.8
18 12.07 ЮЗ 1 50 км 10/10 600 м
[Sc]
+15.8 +14.6 93 +16 +16 1001.9 980.2
21 12.07 ЮЗ 1 50 км слаб. ливневой дождь 10/10 600 м
[Cb cap]
+15.6 +14.7 94 +16 +16 1003.0 981.2 +15.3 0.0
00 13.07 СВ 2 10 км слаб. ливневой дождь 10/10 300 м
[Cb cap]
+18.3 +16.4 89 +19 +19 1003.3 981.8
03 13.07 СВ 2 10 км слаб. ливневой дождь 10/10 300 м
[Cb cap]
+18.9 +16.6 87 +21 +21 комфорт 1003.2 981.7
06 13.07 СВ 2 10 км слаб. ливневой дождь 10/10 300 м
[Cb cap]
+19.3 +17.0 87 +22 +22 комфорт 1002.9 981.4
09 13.07 СВ 1 50 км {ливн. осадки} 10/10 600 м
[Sc diur, vesp]
+19.6 +17.0 85 +23 +23 комфорт 1002.4 980.9 +20.0 2
12 13.07 ЮЗ 1 50 км {ливн. осадки} 10/10 600 м
[Sc]
+18.3 +17.2 93 +20 +20 1003.7 982.1
15 13.07 ЮЗ 1 10 км слаб. ливневой дождь 10/10 300 м
[Cb cap]
+17.8 +17.2 96 +19 +19 1004.4 982.8
18 13.07 штиль 0 10 км слаб. ливневой дождь 10/10 300 м
[Cb cap]
+17.1 +16.5 96 +17 +17 1004.5 982.8
21 13.07 ЮЗ 1 20 км в посл. час ливневой дождь 10/10 200 м
[St]
+16.7 +16.3 97 +18 +18 1005.1 983.4 +16.7 5
00 14.07 штиль 0 50 км {ливн. осадки} 10/4 600 м
[Cu med, cong Ac cast]
+20.2 +16.3 78 +23 +25 комфорт 1004.8 983.3
03 14.07 СВ 2 50 км 9/9 600 м
[Cu med, cong]
+24.6 +16.4 60 +28 +30 душно 1004.1 983.0
06 14.07 В 1 50 км 10/10 600 м
[Cu Sc]
+25.2 +17.2 61 +29 +29 душно 1003.4 982.3
09 14.07 СВ 1 50 км 9/3 600 м
[Sc Ac trans]
+24.3 +17.2 65 +28 +29 душно 1003.8 982.7 +26.4
12 14.07 Ю 1 50 км 9/1 600 м
[Sc Ac trans]
+19.0 +17.4 90 +22 +22 комфорт 1006.0 984.4
15 14.07 ЮЗ 1 50 км 10/0
[Ac und]
+17.4 +16.8 96 +18 +18 1007.2 985.5
18 14.07 штиль 0 50 км 10/10 200 м
[St]
+17.1 +16.7 97 +17 +17 1007.8 986.0
21 14.07 штиль 0 500 м туман ?/? +17.4 +17.4 100 +17 +17 1008.8 987.0 +16.8
00 15.07 СВ 1 50 км {туман} 8/5 600 м
[Cu med, cong Ac As]
+21.8 +16.7 73 +26 +30 душно 1009.8 988.3
03 15.07 штиль 0 50 км 9/9 600 м
[Cu med, cong]
+23.6 +16.2 63 +27 +30 жарко 1009.7 988.4
06 15.07 ЮВ 2 50 км 8/6 600 м
[Cu med, cong Ac trans]
+24.5 +16.2 60 +28 +31 душно 1009.7 988.4
09 15.07 З 1 50 км 10/10 600 м
[Sc diur, vesp]
+23.4 +16.2 64 +28 +28 душно 1010.1 988.7 +25.7
12 15.07 Ю 1 50 км 10/10 600 м
[Sc diur, vesp]
+19.3 +16.6 84 +22 +22 комфорт 1012.3 990.6
15 15.07 штиль 0 50 км 10/10 600 м
[Sc]
+18.0 +16.4 90 +18 +18 1013.0 991.2
18 15.07 Ю 1 50 км 10/10 600 м
[Sc]
+17.2 +15.9 92 +18 +18 1013.1 991.2
21 15.07 штиль 0 50 км 10/10 600 м
[Sc]
+17.4 +16.3 93 +17 +17 1013.9 992.0 +16.8
00 16.07 штиль 0 50 км 10/10 600 м
[Sc]
+19.2 +16.1 82 +21 +21 комфорт 1014.0 992.3
03 16.07 Ю 1 50 км 10/10 600 м
[Cu med, cong]
+22.3 +16.3 69 +27 +27 душно 1013.0 991.5
06 16.07 штиль 0 10 км слаб. ливневой дождь 10/10 600 м
[Cb cap]
+20.4 +17.7 84 +24 +24 комфорт 1012.4 990.8
09 16.07 ЮЗ 1 50 км {ливн. осадки} 9/9 600 м
[Sc diur, vesp]
+22.1 +18.0 78 +27 +27 душно 1011.7 990.2 +23.8 0.9
12 16.07 ЮЗ 1 50 км {ливн. осадки} 3/3 600 м
[Sc diur, vesp]
+17.8 +15.7 88 +19 +19 1012.8 991.0

 

Местоположение метеостанции Анучино (Приморский край, Россия): широта 43.97 долгота 133.00 высота над уровнем моря 188 м.

В архиве по умолчанию представлена погода в Анучино за последнюю неделю. Архивные данные за месяц целиком и за предыдущие месяцы, начиная с января 2011 года, Вы можете получить, выбрав интересующий диапазон дат из раскрывающегося списка и нажав кнопку "Ввод!".


*Определитесь, кто Вы:
робот инопланетянин человек

Внимание! Время в таблицах - всемирное. Для получения местного времени необходимо прибавить поправку, которая равна 10 ч.

Смотрите также архив погоды в соседних городах и на ближайших метеорологических станциях:

Погода в Чугуевке (Приморский край, Россия) (67 км)
Погода в Многоудобном (Приморский край, Россия) (70 км)
Погода в Спасск-Дальнем (Приморский край, Россия) (75 км)
Погода в Тимирязевском (Приморский край, Россия) (89 км)
Погода в Лазо (Приморский край, Россия) (90 км)
Погода в Партизанске (Приморский край, Россия) (91 км)
Погода в Свиягино (Приморский край, Россия) (92 км)
Погода в Хороле (Приморский край, Россия) (95 км)
Погода в Астраханке (Приморский край, Россия) (115 км)
Погода в Лучегорске (Приморский край, Россия) (123 км)

Пояснения к столбцам:

Ветер - указаны скорость ветра в м/с - средняя за 10 мин, порывы в срок и между сроками (в фигурных скобках) и направление, откуда дует ветер: С - северный, СВ - северо-восточный, В - восточный, ЮВ - юго-восточный, Ю - южный, ЮЗ - юго-западный, З - западный, СЗ - северо-западный.
Видимость - горизонтальная дальность видимости в метрах или километрах. При видимости от 1 до 10 км при отсутствии осадков обычно наблюдается дымка, при ухудшении видимости до 1 км и менее - туман. В сухую погоду видимость может ухудшаться дымом, пылью или мглою.
Явления - указаны атмосферные явления, наблюдавшиеся в срок или в последний час перед сроком; фигурными скобками обозначены явления, наблюдавшиеся между сроками (за 1-3 часа до срока); квадратными скобками обозначены град или гололедные отложения с указанием их диаметра в мм.
Облачность - указаны через наклонную черту общая и нижняя облачность в баллах и высота нижней границы облаков в метрах; квадратными скобками обозначены формы облаков: Ci - перистые, Cs - перисто-слоистые, Cc - перисто-кучевые, Ac - высококучевые, As - высокослоистые, Sc - слоисто-кучевые, Ns - слоисто-дождевые, Cu - кучевые, Cb - кучево-дождевые. Подробнее классификацию облаков см. в Атласе облаков (PDF).
T - Температура воздуха - температура, измеренная на высоте 2 м над землей.
Td - Температура точки росы - температура, при понижении до которой содержащийся в воздухе водяной пар достигнет насыщения.
f - Относительная влажность воздуха - влажноcть воздуха, измеренная на высоте 2 м над землей.
Te - Эффективная температура - температура, которую ощущает одетый по сезону человек в тени. Характеристика душности погоды. При расчете учитывается влияние влажности воздуха и скорости ветра на теплоощущения человека.
Tes - Эффективная температура на солнце - температура, которую ощущает человек, с поправкой на солнечный нагрев. Характеристика знойности погоды. Зависит от высоты солнца над горизонтом, облачности и скорости ветра. Ночью, в пасмурную погоду, а также при ветре 12 м/с и более поправка равна нулю.
P - Атмосферное давление - приведенное к уровню моря атмосферное давление.
Po - Атмосферное давление - измеренное на уровне метеостанции атмосферное давление.
Tmin - Минимальная температура - минимум температуры воздуха на высоте 2 м над землей.
Tmax - Максимальная температура - максимум температуры воздуха на высоте 2 м над землей.
R - Количество осадков - Количество выпавших осадков за период времени, мм. При наведении курсора мыши на число - период времени, за который выпало указанное количество осадков.
R24 - Количество осадков - Количество выпавших осадков за 24 часа, мм.
S - Снежный покров - Высота снежного покрова, см. При наведении курсора мыши на число - состояние снежного покрова и степень покрытия местности в баллах.